SUNNYSIDE Weather Reports


time (UTC)temp
C
wind
direction
speed
KPH
gust
KPH
rain 1hr
cm
rain 24hr
cm
rain mn
cm
humidity
%
barometer
mb
20260831013045 22 144 4.8 12.9 0.00 0.00 0.00 52 976.6
20260831012545 22 118 4.8 14.5 0.00 0.00 0.00 52 976.4
20260831012043 22 107 3.2 14.5 0.00 0.00 0.00 53 976.4
20260831011545 22 360 4.8 9.7 0.00 0.00 0.00 53 976.4
20260831011142 22 114 4.8 9.7 0.00 0.00 0.00 54 976.5
20260831010542 23 132 3.2 9.7 0.00 0.00 0.00 54 976.4
20260831010045 23 104 1.6 11.3 0.00 0.00 0.00 54 976.4
20260831005541 23 126 3.2 16.1 0.00 0.00 0.00 53 976.5
20260831005043 23 146 3.2 16.1 0.00 0.00 0.00 53 976.7
20260831004541 23 96 4.8 11.3 0.00 0.00 0.00 53 976.8
20260831004044 24 105 4.8 14.5 0.00 0.00 0.00 53 976.9
20260831003541 24 360 3.2 14.5 0.00 0.00 0.00 53 976.8
20260831003041 24 109 4.8 12.9 0.00 0.00 0.00 53 976.9
20260831002540 24 90 4.8 12.9 0.00 0.00 0.00 53 976.9
20260831002041 25 98 6.4 12.9 0.00 0.00 0.00 52 976.9
20260831001541 25 85 4.8 11.3 0.00 0.00 0.00 52 977.0
20260831001039 25 88 3.2 14.5 0.00 0.00 0.00 52 976.9
20260831000540 25 186 6.4 14.5 0.00 0.00 0.00 52 977.0
20260831000041 25 103 4.8 16.1 0.00 0.00 0.00 51 977.0
20260830235544 25 82 4.8 12.9 0.00 0.00 0.00 51 976.8
20260830235039 25 90 4.8 11.3 0.00 0.00 0.00 51 976.8
20260830234554 25 90 4.8 12.9 0.00 0.00 0.00 50 976.9
20260830234039 25 103 3.2 16.1 0.00 0.00 0.00 50 977.1
20260830233539 26 87 6.4 17.7 0.00 0.00 0.00 49 977.1
20260830233039 26 94 4.8 14.5 0.00 0.00 0.00 49 977.0
20260830232539 26 98 4.8 14.5 0.00 0.00 0.00 49 976.9
20260830232039 26 98 4.8 14.5 0.00 0.00 0.00 49 976.9
20260830231538 26 84 4.8 14.5 0.00 0.00 0.00 49 976.9
20260830231037 26 109 4.8 14.5 0.00 0.00 0.00 48 976.9
20260830230537 26 105 3.2 16.1 0.00 0.00 0.00 49 976.9
20260830230037 26 102 8.0 19.3 0.00 0.00 0.00 48 976.8
20260830225537 26 106 9.7 19.3 0.00 0.00 0.00 47 976.7
20260830225037 26 183 4.8 16.1 0.00 0.00 0.00 48 976.6
20260830224536 26 116 6.4 16.1 0.00 0.00 0.00 48 976.9
20260830224035 26 124 8.0 17.7 0.00 0.00 0.00 47 977.0
20260830223534 26 117 9.7 17.7 0.00 0.00 0.00 47 977.2
20260830223038 26 84 8.0 14.5 0.00 0.00 0.00 48 977.4
20260830222533 26 131 4.8 14.5 0.00 0.00 0.00 48 977.5
20260830222035 26 113 3.2 9.7 0.00 0.00 0.00 48 977.6
20260830221536 26 91 3.2 11.3 0.00 0.00 0.00 47 977.7
20260830221033 26 95 4.8 17.7 0.00 0.00 0.00 46 977.8
20260830220530 26 88 6.4 17.7 0.00 0.00 0.00 46 977.9
20260830220030 27 114 6.4 17.7 0.00 0.00 0.00 46 978.0
20260830215529 27 150 6.4 22.5 0.00 0.00 0.00 45 978.1
20260830215033 27 159 12.9 20.9 0.00 0.00 0.00 45 978.1
20260830214529 26 111 12.9 24.1 0.00 0.00 0.00 45 978.3
20260830214028 26 100 14.5 24.1 0.00 0.00 0.00 46 978.4
20260830213527 26 104 11.3 20.9 0.00 0.00 0.00 45 978.3
20260830213027 26 360 9.7 24.1 0.00 0.00 0.00 45 978.4
20260830212527 27 86 12.9 24.1 0.00 0.00 0.00 44 978.3
20260830212026 27 86 14.5 24.1 0.00 0.00 0.00 44 978.4
20260830211527 26 132 12.9 24.1 0.00 0.00 0.00 43 978.6
20260830211026 26 91 11.3 29.0 0.00 0.00 0.00 44 978.7
20260830210525 27 97 16.1 29.0 0.00 0.00 0.00 42 978.6
20260830210024 27 93 12.9 27.4 0.00 0.00 0.00 44 978.7
20260830205523 27 90 14.5 27.4 0.00 0.00 0.00 42 978.8
20260830205024 27 96 11.3 25.7 0.00 0.00 0.00 43 978.9
20260830204522 27 108 14.5 24.1 0.00 0.00 0.00 42 978.9
20260830204022 27 101 12.9 25.7 0.00 0.00 0.00 42 979.1
20260830203521 27 109 12.9 25.7 0.00 0.00 0.00 42 979.0
20260830203041 27 116 16.1 25.7 0.00 0.00 0.00 43 979.0
20260830202520 27 104 14.5 24.1 0.00 0.00 0.00 45 979.0
20260830202019 27 102 12.9 24.1 0.00 0.00 0.00 47 979.1
20260830201518 27 107 12.9 24.1 0.00 0.00 0.00 46 979.2
20260830201017 26 102 12.9 20.9 0.00 0.00 0.00 46 979.2
20260830200516 26 115 12.9 20.9 0.00 0.00 0.00 46 979.3
20260830200019 26 98 11.3 19.3 0.00 0.00 0.00 46 979.4
20260830195516 26 107 9.7 25.7 0.00 0.00 0.00 47 979.4
20260830195016 26 102 14.5 25.7 0.00 0.00 0.00 46 979.5
20260830194516 26 98 14.5 22.5 0.00 0.00 0.00 45 979.5
20260830194016 27 69 14.5 27.4 0.00 0.00 0.00 44 979.5
20260830193515 27 126 12.9 27.4 0.00 0.00 0.00 45 979.5
20260830193015 27 91 16.1 22.5 0.00 0.00 0.00 45 979.5
20260830192515 27 360 12.9 25.7 0.00 0.00 0.00 45 979.6
20260830192015 27 95 12.9 25.7 0.00 0.00 0.00 45 979.6
20260830191515 27 360 12.9 30.6 0.00 0.00 0.00 45 979.6
20260830191014 27 141 16.1 30.6 0.00 0.00 0.00 45 979.6
20260830190513 27 135 14.5 27.4 0.00 0.00 0.00 46 979.6
20260830190024 27 109 14.5 27.4 0.00 0.00 0.00 46 979.5
20260830185513 27 124 12.9 25.7 0.00 0.00 0.00 47 979.5
20260830185013 27 107 16.1 27.4 0.00 0.00 0.00 45 979.7
20260830184522 27 115 12.9 24.1 0.00 0.00 0.00 48 979.6
20260830184011 27 360 11.3 22.5 0.00 0.00 0.00 47 979.8
20260830183510 27 114 9.7 17.7 0.00 0.00 0.00 48 979.7
20260830183019 27 360 9.7 22.5 0.00 0.00 0.00 47 979.8
20260830182511 27 96 8.0 22.5 0.00 0.00 0.00 49 979.8
20260830182008 26 100 4.8 19.3 0.00 0.00 0.00 50 979.8
20260830181507 26 115 14.5 19.3 0.00 0.00 0.00 49 979.9
20260830181005 26 85 11.3 19.3 0.00 0.00 0.00 50 979.9
20260830180505 26 78 8.0 20.9 0.00 0.00 0.00 50 979.9
20260830180004 26 80 9.7 27.4 0.00 0.00 0.00 51 980.0
20260830175503 26 360 17.7 27.4 0.00 0.00 0.00 41 980.1
20260830175002 26 102 12.9 25.7 0.00 0.00 0.00 42 980.2
20260830174502 26 360 12.9 25.7 0.00 0.00 0.00 43 980.2
20260830174100 26 97 17.7 25.7 0.00 0.00 0.00 43 980.2
20260830173559 25 103 9.7 20.9 0.00 0.00 0.00 46 980.1
20260830173114 25 96 14.5 22.5 0.00 0.00 0.00 45 980.3
20260830172557 25 136 8.0 22.5 0.00 0.00 0.00 45 980.4
20260830172057 25 100 6.4 17.7 0.00 0.00 0.00 46 980.5
20260830171601 25 95 11.3 22.5 0.00 0.00 0.00 45 980.5
20260830171056 25 94 9.7 25.7 0.00 0.00 0.00 45 980.7
20260830170556 26 93 11.3 22.5 0.00 0.00 0.00 45 980.7
20260830170056 26 104 6.4 19.3 0.00 0.00 0.00 46 980.7
20260830165555 26 114 8.0 19.3 0.00 0.00 0.00 45 980.7
20260830165055 25 97 8.0 20.9 0.00 0.00 0.00 46 980.7
20260830164553 25 98 11.3 20.9 0.00 0.00 0.00 46 980.6
20260830164056 25 94 8.0 25.7 0.00 0.00 0.00 46 980.8
20260830163554 25 94 9.7 17.7 0.00 0.00 0.00 47 980.9
20260830163052 25 136 8.0 25.7 0.00 0.00 0.00 48 981.0
20260830162552 25 80 16.1 25.7 0.00 0.00 0.00 46 981.1
20260830162051 25 90 14.5 25.7 0.00 0.00 0.00 48 981.0
20260830161550 25 115 4.8 17.7 0.00 0.00 0.00 50 980.9
20260830161051 25 134 9.7 17.7 0.00 0.00 0.00 50 981.0
20260830160548 25 360 9.7 20.9 0.00 0.00 0.00 49 981.0
20260830160047 25 145 4.8 20.9 0.00 0.00 0.00 51 981.0
20260830155546 24 84 9.7 20.9 0.00 0.00 0.00 50 981.1
20260830155049 24 140 9.7 17.7 0.00 0.00 0.00 52 981.2
20260830154545 24 104 8.0 16.1 0.00 0.00 0.00 51 981.2
20260830154041 23 116 8.0 16.1 0.00 0.00 0.00 53 981.3
20260830153540 23 360 8.0 16.1 0.00 0.00 0.00 54 981.6
20260830153040 23 134 9.7 16.1 0.00 0.00 0.00 55 981.7
20260830152539 23 104 8.0 16.1 0.00 0.00 0.00 55 981.5
20260830152039 23 360 8.0 17.7 0.00 0.00 0.00 56 981.4
20260830151537 22 155 9.7 17.7 0.00 0.00 0.00 57 981.4
20260830151036 22 128 8.0 12.9 0.00 0.00 0.00 59 981.6
20260830150534 22 129 3.2 11.3 0.00 0.00 0.00 61 981.7
20260830150036 22 145 3.2 16.1 0.00 0.00 0.00 61 981.6
20260830145532 21 100 6.4 16.1 0.00 0.00 0.00 62 981.6
20260830145031 21 124 6.4 14.5 0.00 0.00 0.00 63 981.7
20260830144535 21 130 4.8 14.5 0.00 0.00 0.00 63 981.9
20260830144027 21 115 8.0 12.9 0.00 0.00 0.00 64 981.8
20260830143526 21 87 4.8 12.9 0.00 0.00 0.00 65 981.7
20260830143035 20 123 4.8 11.3 0.00 0.00 0.00 66 981.6
20260830142524 20 143 3.2 11.3 0.00 0.00 0.00 66 981.6
20260830142022 20 128 4.8 11.3 0.00 0.00 0.00 67 981.6
20260830141521 20 113 3.2 11.3 0.00 0.00 0.00 67 981.5
20260830141021 20 144 3.2 11.3 0.00 0.00 0.00 67 981.5
20260830140517 19 360 3.2 11.3 0.00 0.00 0.00 68 981.4
20260830140017 19 360 4.8 11.3 0.00 0.00 0.00 68 981.6
20260830135516 19 128 4.8 11.3 0.00 0.00 0.00 69 981.5
20260830135015 18 158 3.2 8.0 0.00 0.00 0.00 69 981.4
20260830134522 18 92 3.2 9.7 0.00 0.00 0.00 69 981.4
20260830134015 18 98 4.8 9.7 0.00 0.00 0.00 69 981.5
20260830133514 18 129 3.2 4.8 0.00 0.00 0.00 69 981.4
20260830133013 18 95 1.6 6.4 0.00 0.00 0.00 69 981.5
20260830132513 18 132 1.6 9.7 0.00 0.00 0.00 69 981.5
20260830132012 17 360 3.2 9.7 0.00 0.00 0.00 69 981.6
20260830131527 17 103 1.6 9.7 0.00 0.00 0.00 69 981.7
20260830131012 17 128 3.2 9.7 0.00 0.00 0.00 69 981.7
20260830130512 17 105 3.2 9.7 0.00 0.00 0.00 69 981.6
20260830130011 17 110 3.2 9.7 0.00 0.00 0.00 69 981.7
20260830125511 17 126 1.6 6.4 0.00 0.00 0.00 70 981.6
20260830125011 16 86 0.0 3.2 0.00 0.00 0.00 70 981.7
20260830124511 16 83 0.0 1.6 0.00 0.00 0.00 70 981.5
20260830124013 16 83 0.0 1.6 0.00 0.00 0.00 69 981.7
20260830123511 15 83 0.0 0.0 0.00 0.00 0.00 69 981.6
20260830123010 15 83 0.0 0.0 0.00 0.00 0.00 69 981.6
20260830122510 15 83 0.0 0.0 0.00 0.00 0.00 69 981.5
20260830122010 15 83 0.0 0.0 0.00 0.00 0.00 69 981.5
20260830121510 15 83 0.0 3.2 0.00 0.00 0.00 69 981.4
20260830121009 15 83 0.0 3.2 0.00 0.00 0.00 69 981.5
20260830120509 15 83 0.0 1.6 0.00 0.00 0.00 69 981.5
20260830120011 15 83 0.0 1.6 0.00 0.00 0.00 69 981.4
20260830115508 15 83 0.0 1.6 0.00 0.00 0.00 69 981.5
20260830115008 15 83 0.0 0.0 0.00 0.00 0.00 69 981.4
20260830114508 15 83 0.0 1.6 0.00 0.00 0.00 69 981.3
20260830114006 15 83 0.0 1.6 0.00 0.00 0.00 69 981.3
20260830113505 16 83 0.0 1.6 0.00 0.00 0.00 69 981.2
20260830113004 16 83 0.0 0.0 0.00 0.00 0.00 69 981.2
20260830112504 16 83 0.0 0.0 0.00 0.00 0.00 68 981.1
20260830112004 16 83 0.0 0.0 0.00 0.00 0.00 69 981.1
20260830111504 16 83 0.0 3.2 0.00 0.00 0.00 69 981.0
20260830111003 16 83 0.0 3.2 0.00 0.00 0.00 69 981.0
20260830110502 16 82 0.0 0.0 0.00 0.00 0.00 69 980.8
20260830110003 16 82 0.0 0.0 0.00 0.00 0.00 69 980.8
20260830105502 16 82 0.0 0.0 0.00 0.00 0.00 69 980.8
20260830105004 16 82 0.0 0.0 0.00 0.00 0.00 69 980.7
20260830104502 16 82 0.0 1.6 0.00 0.00 0.00 69 980.7
20260830104004 16 82 0.0 1.6 0.00 0.00 0.00 69 980.7
20260830103502 16 82 0.0 0.0 0.00 0.00 0.00 68 980.7
20260830103002 16 82 0.0 0.0 0.00 0.00 0.00 68 980.8
20260830102600 16 82 0.0 0.0 0.00 0.00 0.00 68 980.7
20260830102103 16 82 0.0 1.6 0.00 0.00 0.00 68 980.8
20260830101600 16 82 0.0 1.6 0.00 0.00 0.00 68 981.0
20260830101059 16 82 0.0 3.2 0.00 0.00 0.00 68 981.0
20260830100600 16 82 0.0 3.2 0.00 0.00 0.00 68 981.0
20260830100108 16 82 0.0 3.2 0.00 0.00 0.00 68 981.0
20260830095602 16 82 0.0 3.2 0.00 0.00 0.00 68 981.0
20260830095058 16 81 0.0 3.2 0.00 0.00 0.00 68 981.0
20260830094558 16 81 0.0 3.2 0.00 0.00 0.00 67 981.1
20260830094056 16 81 0.0 3.2 0.00 0.00 0.00 68 981.0
20260830093555 17 80 0.0 1.6 0.00 0.00 0.00 68 981.0
20260830093102 17 81 0.0 3.2 0.00 0.00 0.00 67 981.1
20260830092556 17 81 0.0 3.2 0.00 0.00 0.00 67 981.0
20260830092054 17 81 0.0 3.2 0.00 0.00 0.00 68 981.0
20260830091554 17 69 0.0 0.0 0.00 0.00 0.00 68 980.9
20260830091053 17 69 0.0 0.0 0.00 0.00 0.00 68 980.8
20260830090552 17 69 0.0 0.0 0.00 0.00 0.00 67 980.8
20260830090051 17 69 0.0 0.0 0.00 0.00 0.00 67 980.9
20260830085550 17 69 0.0 0.0 0.00 0.00 0.00 67 980.9
20260830085050 17 69 0.0 0.0 0.00 0.00 0.00 67 981.0
20260830084550 17 69 0.0 0.0 0.00 0.00 0.00 66 981.0
20260830084052 17 69 0.0 0.0 0.00 0.00 0.00 66 981.0
20260830083548 17 69 0.0 0.0 0.00 0.00 0.00 66 981.0
20260830083048 17 69 0.0 0.0 0.00 0.00 0.00 66 981.1
20260830082549 18 69 0.0 0.0 0.00 0.00 0.00 66 981.1
20260830082047 18 69 0.0 0.0 0.00 0.00 0.00 66 981.2
20260830081550 17 67 0.0 0.0 0.00 0.00 0.00 66 981.1
20260830081049 17 67 0.0 0.0 0.00 0.00 0.00 66 981.2
20260830080546 17 67 0.0 0.0 0.00 0.00 0.00 65 981.1
20260830080046 18 67 0.0 0.0 0.00 0.00 0.00 65 981.1
20260830075545 18 67 0.0 0.0 0.00 0.00 0.00 65 981.2
20260830075045 18 67 0.0 0.0 0.00 0.00 0.00 65 981.3
20260830074548 18 67 0.0 0.0 0.00 0.00 0.00 65 981.2
20260830074044 18 67 0.0 0.0 0.00 0.00 0.00 64 981.2
20260830073544 18 67 0.0 0.0 0.00 0.00 0.00 63 981.2
20260830073044 18 67 0.0 0.0 0.00 0.00 0.00 62 981.3
20260830072543 18 68 0.0 0.0 0.00 0.00 0.00 61 981.2
20260830072043 18 67 0.0 0.0 0.00 0.00 0.00 60 981.2
20260830071611 18 67 0.0 0.0 0.00 0.00 0.00 60 981.3
20260830071042 18 67 0.0 0.0 0.00 0.00 0.00 59 981.3
20260830070543 18 67 0.0 0.0 0.00 0.00 0.00 59 981.2
20260830070041 19 67 0.0 0.0 0.00 0.00 0.00 60 981.1
20260830065543 19 67 0.0 0.0 0.00 0.00 0.00 59 981.0
20260830065038 19 67 0.0 0.0 0.00 0.00 0.00 59 981.1
20260830064538 19 67 0.0 0.0 0.00 0.00 0.00 59 981.1
20260830064038 19 67 0.0 0.0 0.00 0.00 0.00 59 981.1
20260830063538 19 67 0.0 0.0 0.00 0.00 0.00 60 981.1
20260830063041 19 67 0.0 0.0 0.00 0.00 0.00 59 981.2
20260830062536 19 67 0.0 0.0 0.00 0.00 0.00 59 981.2
20260830062037 19 67 0.0 0.0 0.00 0.00 0.00 59 981.1
20260830061536 19 67 0.0 0.0 0.00 0.00 0.00 59 981.3
20260830061035 19 67 0.0 3.2 0.00 0.00 0.00 60 981.4
20260830060535 19 67 0.0 3.2 0.00 0.00 0.00 60 981.3
20260830060035 19 51 0.0 0.0 0.00 0.00 0.00 60 981.3
20260830055651 19 51 0.0 0.0 0.00 0.00 0.00 60 981.3
20260830055033 19 51 0.0 0.0 0.00 0.00 0.00 59 981.3
20260830054533 19 51 0.0 0.0 0.00 0.00 0.00 59 981.3
20260830054032 19 51 0.0 0.0 0.00 0.00 0.00 59 981.3
20260830053532 19 51 0.0 0.0 0.00 0.00 0.00 59 981.4
20260830053032 19 51 0.0 0.0 0.00 0.00 0.00 59 981.4
20260830052531 19 51 0.0 0.0 0.00 0.00 0.00 60 981.4
20260830052030 18 51 0.0 0.0 0.00 0.00 0.00 58 981.4
20260830051531 18 51 0.0 0.0 0.00 0.00 0.00 58 981.4
20260830051030 18 51 0.0 0.0 0.00 0.00 0.00 57 981.4
20260830050529 18 51 0.0 0.0 0.00 0.00 0.00 57 981.4
20260830050027 18 51 0.0 0.0 0.00 0.00 0.00 56 981.3
20260830045527 18 51 0.0 0.0 0.00 0.00 0.00 56 981.4
20260830045027 18 51 0.0 0.0 0.00 0.00 0.00 55 981.3
20260830044547 19 51 0.0 0.0 0.00 0.00 0.00 55 981.4
20260830044031 19 51 0.0 0.0 0.00 0.00 0.00 54 981.3
20260830043526 19 51 0.0 0.0 0.00 0.00 0.00 53 981.4
20260830043027 20 51 0.0 0.0 0.00 0.00 0.00 54 981.3
20260830042526 20 51 0.0 0.0 0.00 0.00 0.00 53 981.9
20260830042026 20 51 0.0 0.0 0.00 0.00 0.00 54 981.3
20260830041526 20 51 0.0 0.0 0.00 0.00 0.00 53 981.3
20260830041029 20 51 0.0 0.0 0.00 0.00 0.00 53 981.3
20260830040525 21 50 0.0 0.0 0.00 0.00 0.00 53 981.3
20260830040034 21 50 0.0 0.0 0.00 0.00 0.00 53 981.3
20260830035525 21 50 0.0 0.0 0.00 0.00 0.00 53 981.1
20260830035028 21 50 0.0 0.0 0.00 0.00 0.00 52 981.1
20260830034526 21 50 0.0 0.0 0.00 0.00 0.00 53 981.0
20260830034024 21 50 0.0 0.0 0.00 0.00 0.00 52 981.0
20260830033524 21 50 0.0 0.0 0.00 0.00 0.00 53 981.0
20260830033025 21 50 0.0 0.0 0.00 0.00 0.00 53 981.0
20260830032524 21 50 0.0 0.0 0.00 0.00 0.00 53 980.9
20260830032024 21 50 0.0 3.2 0.00 0.00 0.00 52 980.7
20260830031524 21 50 0.0 3.2 0.00 0.00 0.00 52 980.8
20260830031024 21 50 0.0 4.8 0.00 0.00 0.00 53 980.8
20260830030524 21 53 0.0 3.2 0.00 0.00 0.00 53 980.8
20260830030024 21 170 0.0 0.0 0.00 0.00 0.00 53 980.7
20260830025523 21 170 0.0 0.0 0.00 0.00 0.00 53 980.7
20260830025126 21 170 0.0 1.6 0.00 0.00 0.00 53 980.6
20260830024522 21 170 0.0 3.2 0.00 0.00 0.00 53 980.6
20260830024025 21 170 1.6 3.2 0.00 0.00 0.00 53 980.5
20260830023523 22 170 0.0 1.6 0.00 0.00 0.00 53 980.5
20260830023022 22 170 0.0 1.6 0.00 0.00 0.00 53 980.4
20260830022524 22 170 0.0 1.6 0.00 0.00 0.00 53 980.3
20260830022023 22 170 0.0 0.0 0.00 0.00 0.00 54 980.2
20260830021523 22 170 0.0 1.6 0.00 0.00 0.00 54 980.1
20260830021023 23 170 0.0 1.6 0.00 0.00 0.00 54 980.1
20260830020525 23 170 0.0 1.6 0.00 0.00 0.00 54 980.0
20260830020022 23 170 0.0 1.6 0.00 0.00 0.00 54 980.0
20260830015521 23 170 0.0 4.8 0.00 0.00 0.00 54 980.0
20260830015021 23 170 0.0 4.8 0.00 0.00 0.00 54 980.0
20260830014521 23 175 1.6 3.2 0.00 0.00 0.00 54 980.0
20260830014022 23 175 0.0 3.2 0.00 0.00 0.00 54 980.1
20260830013522 23 209 0.0 6.4 0.00 0.00 0.00 54 980.0